Location: Milton Keynes
(52.0316°N, 0.7531°W)
Time: 06:32:06
(UTC+01:00)

Genesis I - Pass Details

Date: 24 January 2019
Orbit: 488 x 536 km, 64.5° (Epoch: 23 October)

Event Time Altitude Azimuth Distance (km) Brightness Sun altitude
Exits shadow 04:45:12 31° 103° (ESE) 945 5.0 -28.8°
Drops below altitude 10° 04:48:14 10° 58° (ENE) 1,789 6.7 -28.4°
Sets 04:50:40 0° 48° (NE) 2,721 7.6 -28.0°
